GW2259 Weather Reports


Display with metric or nautical units.
time (UTC)temp
F
wind
direction
speed
MPH
gust
MPH
rain 1hr
in
rain 24hr
in
rain mn
in
humidity
%
barometer
mb
20260831001542 95 122 6.0 11.0 0.00 0.00 0.00 33 1013.6
20260831000039 96 121 8.0 12.0 0.00 0.00 0.00 31 1013.4
20260830234545 93 124 5.0 10.0 0.00 0.00 0.00 33 1013.5
20260830233042 97 90 5.0 8.0 0.00 0.00 0.00 32 1013.6
20260830231540 97 124 6.0 11.0 0.00 0.00 0.00 31 1013.5
20260830230042 98 120 7.0 12.0 0.00 0.00 0.00 31 1013.5
20260830224536 98 148 7.0 13.0 0.00 0.00 0.00 30 1013.5
20260830223045 98 119 9.0 15.0 0.00 0.00 0.00 31 1013.4
20260830221542 97 72 6.0 15.0 0.00 0.00 0.00 31 1013.5
20260830220044 97 96 5.0 11.0 0.00 0.00 0.00 33 1013.6
20260830214541 97 154 8.0 13.0 0.00 0.00 0.00 32 1013.8
20260830213042 95 138 6.0 10.0 0.00 0.00 0.00 33 1013.9
20260830211536 97 134 8.0 12.0 0.00 0.00 0.00 33 1014.0
20260830210043 96 139 4.0 14.0 0.00 0.00 0.00 34 1014.3
20260830204541 96 149 5.0 8.0 0.00 0.00 0.00 33 1014.6
20260830203039 95 148 6.0 12.0 0.00 0.00 0.00 35 1014.7
20260830201542 95 125 5.0 9.0 0.00 0.00 0.00 36 1015.0
20260830200043 96 201 4.0 12.0 0.00 0.00 0.00 33 1015.2
20260830194558 94 146 3.0 9.0 0.00 0.00 0.00 38 1015.5
20260830193042 94 181 3.0 13.0 0.00 0.00 0.00 39 1015.7
20260830191539 94 203 3.0 10.0 0.00 0.00 0.00 38 1015.9
20260830190043 93 202 4.0 13.0 0.00 0.00 0.00 40 1016.0
20260830184539 93 153 6.0 10.0 0.00 0.00 0.00 40 1016.3
20260830183039 92 130 6.0 11.0 0.00 0.00 0.00 41 1016.5
20260830181543 92 114 6.0 14.0 0.00 0.00 0.00 45 1016.9
20260830180045 91 105 5.0 8.0 0.00 0.00 0.00 46 1017.2
20260830174603 90 139 7.0 13.0 0.00 0.00 0.00 49 1017.4
20260830173041 90 125 6.0 11.0 0.00 0.00 0.00 49 1017.6
20260830171544 89 230 2.0 9.0 0.00 0.00 0.00 53 1017.9
20260830170043 88 139 6.0 13.0 0.00 0.00 0.00 52 1018.1
20260830164535 87 150 4.0 9.0 0.00 0.00 0.00 54 1018.3
20260830163051 87 209 3.0 12.0 0.00 0.00 0.00 55 1018.3
20260830161558 86 140 8.0 14.0 0.00 0.00 0.00 55 1018.2
20260830160043 85 232 5.0 11.0 0.00 0.00 0.00 59 1018.2
20260830154540 85 211 5.0 13.0 0.00 0.00 0.00 62 1018.1
20260830153039 84 185 6.0 12.0 0.00 0.00 0.00 64 1018.1
20260830151546 84 207 6.0 11.0 0.00 0.00 0.00 64 1018.1
20260830150045 83 218 4.0 10.0 0.00 0.00 0.00 69 1018.1
20260830144544 83 184 5.0 9.0 0.00 0.00 0.00 70 1018.1
20260830143045 81 191 6.0 10.0 0.00 0.00 0.00 71 1018.0
20260830141538 80 205 4.0 9.0 0.00 0.00 0.00 73 1018.0
20260830140049 80 214 4.0 9.0 0.00 0.00 0.00 74 1017.9
20260830134542 79 212 6.0 9.0 0.00 0.00 0.00 75 1017.9
20260830133046 79 214 1.0 5.0 0.00 0.00 0.00 74 1017.8
20260830131542 79 209 1.0 3.0 0.00 0.00 0.00 74 1017.6
20260830130051 76 185 0.0 3.0 0.00 0.00 0.00 79 1017.5
20260830124544 73 127 0.0 1.0 0.00 0.00 0.00 84 1017.4
20260830123041 70 0 0.0 1.0 0.00 0.00 0.00 88 1017.3
20260830121540 69 0 0.0 0.0 0.00 0.00 0.00 90 1017.2
20260830120037 70 0 0.0 0.0 0.00 0.00 0.00 88 1017.0
20260830114546 70 0 0.0 0.0 0.00 0.00 0.00 88 1017.0
20260830113044 70 0 0.0 0.0 0.00 0.00 0.00 88 1016.9
20260830111537 71 0 0.0 1.0 0.00 0.00 0.00 87 1016.9
20260830110046 71 0 0.0 1.0 0.00 0.00 0.00 87 1016.7
20260830104541 71 0 0.0 0.0 0.00 0.00 0.00 86 1016.7
20260830103041 71 0 0.0 0.0 0.00 0.00 0.00 85 1016.6
20260830101556 72 0 0.0 0.0 0.00 0.00 0.00 84 1016.5
20260830100043 72 0 0.0 2.0 0.00 0.00 0.00 83 1016.6
20260830094546 73 153 0.0 2.0 0.00 0.00 0.00 82 1016.6
20260830093036 73 154 0.0 4.0 0.00 0.00 0.00 81 1016.5
20260830091543 74 164 1.0 4.0 0.00 0.00 0.00 79 1016.5
20260830090043 74 193 1.0 4.0 0.00 0.00 0.00 79 1016.4
20260830084543 74 199 1.0 5.0 0.00 0.00 0.00 78 1016.5
20260830083047 75 166 2.0 4.0 0.00 0.00 0.00 76 1016.6
20260830081539 75 179 3.0 5.0 0.00 0.00 0.00 75 1016.5
20260830080042 76 164 5.0 9.0 0.00 0.00 0.00 74 1016.7
20260830074540 76 158 3.0 6.0 0.00 0.00 0.00 74 1016.7
20260830073046 76 130 4.0 7.0 0.00 0.00 0.00 73 1017.0
20260830071555 76 191 3.0 5.0 0.00 0.00 0.00 72 1016.9
20260830070043 76 187 3.0 8.0 0.00 0.00 0.00 71 1017.0
20260830064536 75 141 4.0 6.0 0.00 0.00 0.00 71 1017.0
20260830063043 75 155 3.0 6.0 0.00 0.00 0.00 71 1017.0
20260830061545 74 173 3.0 4.0 0.00 0.00 0.00 72 1017.0
20260830060041 75 166 0.0 3.0 0.00 0.00 0.00 71 1016.8
20260830054540 75 142 2.0 3.0 0.00 0.00 0.00 70 1016.8
20260830053041 76 144 2.0 5.0 0.00 0.00 0.00 69 1016.8
20260830051546 76 207 2.0 4.0 0.00 0.00 0.00 68 1016.9
20260830050106 77 159 2.0 4.0 0.00 0.00 0.00 66 1016.9
20260830044540 78 203 1.0 3.0 0.00 0.00 0.00 65 1017.0
20260830043040 79 141 2.0 5.0 0.00 0.00 0.00 62 1017.0
20260830041602 80 145 2.0 4.0 0.00 0.00 0.00 62 1017.0
20260830040045 80 176 3.0 5.0 0.00 0.00 0.00 61 1016.8
20260830034539 81 181 3.0 6.0 0.00 0.00 0.00 60 1016.7
20260830033038 81 135 3.0 6.0 0.00 0.00 0.00 59 1016.7
20260830031541 81 142 4.0 6.0 0.00 0.00 0.00 58 1016.6
20260830030041 82 131 4.0 6.0 0.00 0.00 0.00 57 1016.5
20260830024547 82 156 4.0 6.0 0.00 0.00 0.00 57 1016.4
20260830023038 83 160 3.0 5.0 0.00 0.00 0.00 55 1016.1
20260830021553 84 148 4.0 7.0 0.00 0.00 0.00 53 1015.8
20260830020042 85 143 6.0 9.0 0.00 0.00 0.00 52 1015.6
20260830014538 85 128 3.0 5.0 0.00 0.00 0.00 53 1015.4
20260830013046 86 125 4.0 6.0 0.00 0.00 0.00 51 1015.2
20260830011600 87 135 4.0 8.0 0.00 0.00 0.00 49 1015.0
20260830010059 89 129 5.0 9.0 0.00 0.00 0.00 47 1014.8
20260830004543 91 121 6.0 11.0 0.00 0.00 0.00 43 1014.8
20260830003040 93 115 6.0 12.0 0.00 0.00 0.00 41 1014.8